Year,Month,Day,Hour,Minute,Value (Times are PST for temperature in C)
2009,09,23,00,00,15.50
2009,09,23,00,01,15.50
2009,09,23,00,02,15.50
2009,09,23,00,03,15.50
2009,09,23,00,04,15.50
2009,09,23,00,05,15.50
2009,09,23,00,06,15.50
2009,09,23,00,07,15.60
2009,09,23,00,08,15.60
2009,09,23,00,09,15.60
2009,09,23,00,10,15.60
2009,09,23,00,11,15.60
2009,09,23,00,12,15.50
2009,09,23,00,13,15.50
2009,09,23,00,14,15.50
2009,09,23,00,15,15.50
2009,09,23,00,16,15.40
2009,09,23,00,17,15.40
2009,09,23,00,18,15.40
2009,09,23,00,19,15.30
2009,09,23,00,20,15.30
2009,09,23,00,21,15.30
2009,09,23,00,22,15.20
2009,09,23,00,23,15.20
2009,09,23,00,24,15.10
2009,09,23,00,25,15.10
2009,09,23,00,26,15.00
2009,09,23,00,27,15.00
2009,09,23,00,28,15.00
2009,09,23,00,29,15.00
2009,09,23,00,30,15.00
2009,09,23,00,31,15.00
2009,09,23,00,32,15.00
2009,09,23,00,33,14.90
2009,09,23,00,34,14.90
2009,09,23,00,35,14.80
2009,09,23,00,36,14.80
2009,09,23,00,37,14.80
2009,09,23,00,38,14.80
2009,09,23,00,39,14.80
2009,09,23,00,40,14.80
2009,09,23,00,41,14.70
2009,09,23,00,42,14.70
2009,09,23,00,43,14.70
2009,09,23,00,44,14.70
2009,09,23,00,45,14.70
2009,09,23,00,46,14.70
2009,09,23,00,47,14.70
2009,09,23,00,48,14.70
2009,09,23,00,49,14.70
2009,09,23,00,50,14.70
2009,09,23,00,51,14.60
2009,09,23,00,52,14.60
2009,09,23,00,53,14.60
2009,09,23,00,54,14.60
2009,09,23,00,55,14.60
2009,09,23,00,56,14.50
2009,09,23,00,57,14.50
2009,09,23,00,58,14.50
2009,09,23,00,59,14.40
2009,09,23,01,00,14.40
2009,09,23,01,01,14.40
2009,09,23,01,02,14.30
2009,09,23,01,03,14.30
2009,09,23,01,04,14.30
2009,09,23,01,05,14.20
2009,09,23,01,06,14.20
2009,09,23,01,07,14.20
2009,09,23,01,08,14.20
2009,09,23,01,09,14.10
2009,09,23,01,10,14.10
2009,09,23,01,11,14.10
2009,09,23,01,12,14.00
2009,09,23,01,13,14.00
2009,09,23,01,14,14.00
2009,09,23,01,15,13.90
2009,09,23,01,16,13.90
2009,09,23,01,17,13.90
2009,09,23,01,18,13.80
2009,09,23,01,19,13.80
2009,09,23,01,20,13.80
2009,09,23,01,21,13.80
2009,09,23,01,22,13.80
2009,09,23,01,23,13.80
2009,09,23,01,24,13.80
2009,09,23,01,25,13.80
2009,09,23,01,26,13.80
2009,09,23,01,27,13.80
2009,09,23,01,28,13.90
2009,09,23,01,29,13.90
2009,09,23,01,30,13.90
2009,09,23,01,31,13.90
2009,09,23,01,32,13.90
2009,09,23,01,33,14.00
2009,09,23,01,34,14.00
2009,09,23,01,35,14.00
2009,09,23,01,36,14.10
2009,09,23,01,37,14.10
2009,09,23,01,38,14.10
2009,09,23,01,39,14.10
2009,09,23,01,40,14.10
2009,09,23,01,41,14.10
2009,09,23,01,42,14.10
2009,09,23,01,43,14.10
2009,09,23,01,44,14.10
2009,09,23,01,45,14.10
2009,09,23,01,46,14.10
2009,09,23,01,47,14.10
2009,09,23,01,48,14.10
2009,09,23,01,49,14.10
2009,09,23,01,50,14.10
2009,09,23,01,51,14.10
2009,09,23,01,52,14.00
2009,09,23,01,53,14.00
2009,09,23,01,54,14.00
2009,09,23,01,55,14.00
2009,09,23,01,56,13.90
2009,09,23,01,57,13.90
2009,09,23,01,58,13.90
2009,09,23,01,59,13.90
2009,09,23,02,00,13.90
2009,09,23,02,01,13.90
2009,09,23,02,02,13.90
2009,09,23,02,03,13.90
2009,09,23,02,04,13.90
2009,09,23,02,05,13.90
2009,09,23,02,06,13.90
2009,09,23,02,07,13.90
2009,09,23,02,08,13.90
2009,09,23,02,09,14.00
2009,09,23,02,10,14.00
2009,09,23,02,11,14.00
2009,09,23,02,12,14.00
2009,09,23,02,13,14.00
2009,09,23,02,14,14.00
2009,09,23,02,15,14.00
2009,09,23,02,16,13.90
2009,09,23,02,17,13.90
2009,09,23,02,18,13.90
2009,09,23,02,19,13.90
2009,09,23,02,20,13.90
2009,09,23,02,21,13.90
2009,09,23,02,22,13.90
2009,09,23,02,23,13.90
2009,09,23,02,24,13.90
2009,09,23,02,25,13.90
2009,09,23,02,26,13.90
2009,09,23,02,27,13.90
2009,09,23,02,28,13.90
2009,09,23,02,29,13.90
2009,09,23,02,30,13.80
2009,09,23,02,31,13.80
2009,09,23,02,32,13.80
2009,09,23,02,33,13.80
2009,09,23,02,34,13.80
2009,09,23,02,35,13.80
2009,09,23,02,36,13.70
2009,09,23,02,37,13.70
2009,09,23,02,38,13.70
2009,09,23,02,39,13.70
2009,09,23,02,40,13.70
2009,09,23,02,41,13.60
2009,09,23,02,42,13.60
2009,09,23,02,43,13.60
2009,09,23,02,44,13.60
2009,09,23,02,45,13.60
2009,09,23,02,46,13.60
2009,09,23,02,47,13.60
2009,09,23,02,48,13.60
2009,09,23,02,49,13.60
2009,09,23,02,50,13.60
2009,09,23,02,51,13.70
2009,09,23,02,52,13.70
2009,09,23,02,53,13.70
2009,09,23,02,54,13.80
2009,09,23,02,55,13.80
2009,09,23,02,56,13.80
2009,09,23,02,57,13.80
2009,09,23,02,58,13.90
2009,09,23,02,59,13.90
2009,09,23,03,00,13.90
2009,09,23,03,01,13.90
2009,09,23,03,02,13.90
2009,09,23,03,03,14.00
2009,09,23,03,04,14.00
2009,09,23,03,05,13.90
2009,09,23,03,06,13.90
2009,09,23,03,07,13.90
2009,09,23,03,08,13.90
2009,09,23,03,09,13.90
2009,09,23,03,10,13.90
2009,09,23,03,11,13.80
2009,09,23,03,12,13.80
2009,09,23,03,13,13.80
2009,09,23,03,14,13.80
2009,09,23,03,15,13.80
2009,09,23,03,16,13.70
2009,09,23,03,17,13.70
2009,09,23,03,18,13.70
2009,09,23,03,19,13.70
2009,09,23,03,20,13.70
2009,09,23,03,21,13.60
2009,09,23,03,22,13.60
2009,09,23,03,23,13.60
2009,09,23,03,24,13.60
2009,09,23,03,25,13.60
2009,09,23,03,26,13.50
2009,09,23,03,27,13.50
2009,09,23,03,28,13.40
2009,09,23,03,29,13.40
2009,09,23,03,30,13.40
2009,09,23,03,31,13.40
2009,09,23,03,32,13.30
2009,09,23,03,33,13.30
2009,09,23,03,34,13.30
2009,09,23,03,35,13.30
2009,09,23,03,36,13.30
2009,09,23,03,37,13.30
2009,09,23,03,38,13.20
2009,09,23,03,39,13.20
2009,09,23,03,40,13.20
2009,09,23,03,41,13.20
2009,09,23,03,42,13.20
2009,09,23,03,43,13.10
2009,09,23,03,44,13.10
2009,09,23,03,45,13.10
2009,09,23,03,46,13.10
2009,09,23,03,47,13.10
2009,09,23,03,48,13.10
2009,09,23,03,49,13.10
2009,09,23,03,50,13.10
2009,09,23,03,51,13.00
2009,09,23,03,52,13.00
2009,09,23,03,53,12.90
2009,09,23,03,54,12.90
2009,09,23,03,55,12.90
2009,09,23,03,56,12.90
2009,09,23,03,57,12.80
2009,09,23,03,58,12.80
2009,09,23,03,59,12.80
2009,09,23,04,00,12.80
2009,09,23,04,01,12.70
2009,09,23,04,02,12.70
2009,09,23,04,03,12.70
2009,09,23,04,04,12.70
2009,09,23,04,05,12.70
2009,09,23,04,06,12.70
2009,09,23,04,07,12.70
2009,09,23,04,08,12.70
2009,09,23,04,09,12.70
2009,09,23,04,10,12.70
2009,09,23,04,11,12.70
2009,09,23,04,12,12.70
2009,09,23,04,13,12.70
2009,09,23,04,14,12.70
2009,09,23,04,15,12.70
2009,09,23,04,16,12.70
2009,09,23,04,17,12.70
2009,09,23,04,18,12.80
2009,09,23,04,19,12.80
2009,09,23,04,20,12.80
2009,09,23,04,21,12.80
2009,09,23,04,22,12.80
2009,09,23,04,23,12.80
2009,09,23,04,24,12.80
2009,09,23,04,25,12.80
2009,09,23,04,26,12.80
2009,09,23,04,27,12.80
2009,09,23,04,28,12.80
2009,09,23,04,29,12.80
2009,09,23,04,30,12.80
2009,09,23,04,31,12.70
2009,09,23,04,32,12.80
2009,09,23,04,33,12.80
2009,09,23,04,34,12.80
2009,09,23,04,35,12.80
2009,09,23,04,36,12.80
2009,09,23,04,37,12.80
2009,09,23,04,38,12.80
2009,09,23,04,39,12.80
2009,09,23,04,40,12.90
2009,09,23,04,41,12.90
2009,09,23,04,42,12.80
2009,09,23,04,43,12.80
2009,09,23,04,44,12.80
2009,09,23,04,45,12.80
2009,09,23,04,46,12.80
2009,09,23,04,47,12.80
2009,09,23,04,48,12.80
2009,09,23,04,49,12.80
2009,09,23,04,50,12.80
2009,09,23,04,51,12.80
2009,09,23,04,52,12.90
2009,09,23,04,53,12.90
2009,09,23,04,54,12.90
2009,09,23,04,55,12.90
2009,09,23,04,56,12.90
2009,09,23,04,57,13.00
2009,09,23,04,58,13.00
2009,09,23,04,59,13.10
2009,09,23,05,00,13.10
2009,09,23,05,01,13.10
2009,09,23,05,02,13.20
2009,09,23,05,03,13.20
2009,09,23,05,04,13.20
2009,09,23,05,05,13.20
2009,09,23,05,06,13.20
2009,09,23,05,07,13.20
2009,09,23,05,08,13.20
2009,09,23,05,09,13.20
2009,09,23,05,10,13.20
2009,09,23,05,11,13.20
2009,09,23,05,12,13.20
2009,09,23,05,13,13.10
2009,09,23,05,14,13.10
2009,09,23,05,15,13.10
2009,09,23,05,16,13.10
2009,09,23,05,17,13.00
2009,09,23,05,18,13.00
2009,09,23,05,19,12.90
2009,09,23,05,20,12.90
2009,09,23,05,21,12.90
2009,09,23,05,22,12.90
2009,09,23,05,23,12.90
2009,09,23,05,24,12.90
2009,09,23,05,25,12.90
2009,09,23,05,26,12.90
2009,09,23,05,27,12.90
2009,09,23,05,28,12.90
2009,09,23,05,29,12.90
2009,09,23,05,30,12.90
2009,09,23,05,31,12.90
2009,09,23,05,32,12.90
2009,09,23,05,33,12.90
2009,09,23,05,34,12.90
2009,09,23,05,35,12.90
2009,09,23,05,36,12.90
2009,09,23,05,37,12.90
2009,09,23,05,38,12.90
2009,09,23,05,39,12.90
2009,09,23,05,40,12.90
2009,09,23,05,41,12.80
2009,09,23,05,42,12.80
2009,09,23,05,43,12.80
2009,09,23,05,44,12.80
2009,09,23,05,45,12.80
2009,09,23,05,46,12.80
2009,09,23,05,47,12.80
2009,09,23,05,48,12.80
2009,09,23,05,49,12.80
2009,09,23,05,50,12.80
2009,09,23,05,51,12.80
2009,09,23,05,52,12.80
2009,09,23,05,53,12.80
2009,09,23,05,54,12.80
2009,09,23,05,55,12.80
2009,09,23,05,56,12.80
2009,09,23,05,57,12.80
2009,09,23,05,58,12.80
2009,09,23,05,59,12.80
2009,09,23,06,00,12.80
2009,09,23,06,01,12.80
2009,09,23,06,02,12.80
2009,09,23,06,03,12.70
2009,09,23,06,04,12.70
2009,09,23,06,05,12.70
2009,09,23,06,06,12.70
2009,09,23,06,07,12.70
2009,09,23,06,08,12.70
2009,09,23,06,09,12.70
2009,09,23,06,10,12.70
2009,09,23,06,11,12.70
2009,09,23,06,12,12.70
2009,09,23,06,13,12.70
2009,09,23,06,14,12.70
2009,09,23,06,15,12.60
2009,09,23,06,16,12.60
2009,09,23,06,17,12.60
2009,09,23,06,18,12.60
2009,09,23,06,19,12.60
2009,09,23,06,20,12.60
2009,09,23,06,21,12.60
2009,09,23,06,22,12.60
2009,09,23,06,23,12.50
2009,09,23,06,24,12.50
2009,09,23,06,25,12.50
2009,09,23,06,26,12.40
2009,09,23,06,27,12.50
2009,09,23,06,28,12.50
2009,09,23,06,29,12.50
2009,09,23,06,30,12.60
2009,09,23,06,31,12.60
2009,09,23,06,32,12.60
2009,09,23,06,33,12.60
2009,09,23,06,34,12.60
2009,09,23,06,35,12.60
2009,09,23,06,36,12.60
2009,09,23,06,37,12.60
2009,09,23,06,38,12.60
2009,09,23,06,39,12.60
2009,09,23,06,40,12.60
2009,09,23,06,41,12.60
2009,09,23,06,42,12.60
2009,09,23,06,43,12.60
2009,09,23,06,44,12.50
2009,09,23,06,45,12.50
2009,09,23,06,46,12.40
2009,09,23,06,47,12.40
2009,09,23,06,48,12.40
2009,09,23,06,49,12.40
2009,09,23,06,50,12.40
2009,09,23,06,51,12.40
2009,09,23,06,52,12.40
2009,09,23,06,53,12.40
2009,09,23,06,54,12.40
2009,09,23,06,55,12.30
2009,09,23,06,56,12.30
2009,09,23,06,57,12.30
2009,09,23,06,58,12.40
2009,09,23,06,59,12.40
2009,09,23,07,00,12.40
2009,09,23,07,01,12.40
2009,09,23,07,02,12.40
2009,09,23,07,03,12.40
2009,09,23,07,04,12.40
2009,09,23,07,05,12.40
2009,09,23,07,06,12.40
2009,09,23,07,07,12.40
2009,09,23,07,08,12.40
2009,09,23,07,09,12.40
2009,09,23,07,10,12.40
2009,09,23,07,11,12.40
2009,09,23,07,12,12.40
2009,09,23,07,13,12.40
2009,09,23,07,14,12.50
2009,09,23,07,15,12.50
2009,09,23,07,16,12.50
2009,09,23,07,17,12.60
2009,09,23,07,18,12.60
2009,09,23,07,19,12.60
2009,09,23,07,20,12.60
2009,09,23,07,21,12.60
2009,09,23,07,22,12.60
2009,09,23,07,23,12.60
2009,09,23,07,24,12.60
2009,09,23,07,25,12.60
2009,09,23,07,26,12.60
2009,09,23,07,27,12.60
2009,09,23,07,28,12.60
2009,09,23,07,29,12.60
2009,09,23,07,30,12.60
2009,09,23,07,31,12.60
2009,09,23,07,32,12.60
2009,09,23,07,33,12.60
2009,09,23,07,34,12.70
2009,09,23,07,35,12.70
2009,09,23,07,36,12.70
2009,09,23,07,37,12.70
2009,09,23,07,38,12.70
2009,09,23,07,39,12.70
2009,09,23,07,40,12.70
2009,09,23,07,41,12.70
2009,09,23,07,42,12.60
2009,09,23,07,43,12.60
2009,09,23,07,44,12.70
2009,09,23,07,45,12.70
2009,09,23,07,46,12.70
2009,09,23,07,47,12.70
2009,09,23,07,48,12.70
2009,09,23,07,49,12.70
2009,09,23,07,50,12.70
2009,09,23,07,51,12.70
2009,09,23,07,52,12.80
2009,09,23,07,53,12.80
2009,09,23,07,54,12.80
2009,09,23,07,55,12.80
2009,09,23,07,56,12.80
2009,09,23,07,57,12.90
2009,09,23,07,58,12.90
2009,09,23,07,59,13.00
2009,09,23,08,00,13.00
2009,09,23,08,01,13.10
2009,09,23,08,02,13.10
2009,09,23,08,03,13.20
2009,09,23,08,04,13.20
2009,09,23,08,05,13.20
2009,09,23,08,06,13.30
2009,09,23,08,07,13.40
2009,09,23,08,08,13.50
2009,09,23,08,09,13.60
2009,09,23,08,10,13.60
2009,09,23,08,11,13.70
2009,09,23,08,12,13.70
2009,09,23,08,13,13.80
2009,09,23,08,14,13.90
2009,09,23,08,15,13.90
2009,09,23,08,16,13.90
2009,09,23,08,17,13.90
2009,09,23,08,18,13.90
2009,09,23,08,19,13.90
2009,09,23,08,20,13.90
2009,09,23,08,21,13.90
2009,09,23,08,22,13.90
2009,09,23,08,23,13.90
2009,09,23,08,24,13.90
2009,09,23,08,25,13.90
2009,09,23,08,26,14.00
2009,09,23,08,27,14.00
2009,09,23,08,28,14.10
2009,09,23,08,29,14.20
2009,09,23,08,30,14.30
2009,09,23,08,31,14.30
2009,09,23,08,32,14.40
2009,09,23,08,33,14.50
2009,09,23,08,34,14.60
2009,09,23,08,35,14.70
2009,09,23,08,36,14.80
2009,09,23,08,37,14.90
2009,09,23,08,38,15.00
2009,09,23,08,39,15.00
2009,09,23,08,40,15.00
2009,09,23,08,41,15.00
2009,09,23,08,42,15.10
2009,09,23,08,43,15.20
2009,09,23,08,44,15.20
2009,09,23,08,45,15.20
2009,09,23,08,46,15.20
2009,09,23,08,47,15.20
2009,09,23,08,48,15.30
2009,09,23,08,49,15.30
2009,09,23,08,50,15.40
2009,09,23,08,51,15.40
2009,09,23,08,52,15.50
2009,09,23,08,53,15.50
2009,09,23,08,54,15.60
2009,09,23,08,55,15.60
2009,09,23,08,56,15.60
2009,09,23,08,57,15.70
2009,09,23,08,58,15.80
2009,09,23,08,59,15.80
2009,09,23,09,00,15.80
2009,09,23,09,01,15.80
2009,09,23,09,02,15.80
2009,09,23,09,03,15.90
2009,09,23,09,04,16.00
2009,09,23,09,05,16.10
2009,09,23,09,06,16.20
2009,09,23,09,07,16.40
2009,09,23,09,08,16.50
2009,09,23,09,09,16.60
2009,09,23,09,10,16.70
2009,09,23,09,11,16.80
2009,09,23,09,12,16.80
2009,09,23,09,13,16.90
2009,09,23,09,14,17.00
2009,09,23,09,15,17.00
2009,09,23,09,16,17.10
2009,09,23,09,17,17.30
2009,09,23,09,18,17.30
2009,09,23,09,19,17.40
2009,09,23,09,20,17.50
2009,09,23,09,21,17.60
2009,09,23,09,22,17.70
2009,09,23,09,23,17.90
2009,09,23,09,24,18.00
2009,09,23,09,25,18.10
2009,09,23,09,26,18.20
2009,09,23,09,27,18.20
2009,09,23,09,28,18.30
2009,09,23,09,29,18.30
2009,09,23,09,30,18.40
2009,09,23,09,31,18.40
2009,09,23,09,32,18.50
2009,09,23,09,33,18.50
2009,09,23,09,34,18.60
2009,09,23,09,35,18.60
2009,09,23,09,36,18.60
2009,09,23,09,37,18.60
2009,09,23,09,38,18.60
2009,09,23,09,39,18.60
2009,09,23,09,40,18.70
2009,09,23,09,41,18.70
2009,09,23,09,42,18.80
2009,09,23,09,43,18.90
2009,09,23,09,44,18.90
2009,09,23,09,45,19.00
2009,09,23,09,46,19.00
2009,09,23,09,47,19.00
2009,09,23,09,48,19.00
2009,09,23,09,49,18.90
2009,09,23,09,50,18.90
2009,09,23,09,51,18.90
2009,09,23,09,52,18.80
2009,09,23,09,53,18.80
2009,09,23,09,54,18.80
2009,09,23,09,55,18.70
2009,09,23,09,56,18.60
2009,09,23,09,57,18.60
2009,09,23,09,58,18.60
2009,09,23,09,59,18.60
2009,09,23,10,00,18.70
2009,09,23,10,01,18.70
2009,09,23,10,02,18.80
2009,09,23,10,03,18.90
2009,09,23,10,04,19.00
2009,09,23,10,05,19.00
2009,09,23,10,06,19.10
2009,09,23,10,07,19.20
2009,09,23,10,08,19.30
2009,09,23,10,09,19.40
2009,09,23,10,10,19.50
2009,09,23,10,11,19.60
2009,09,23,10,12,19.70
2009,09,23,10,13,19.80
2009,09,23,10,14,19.90
2009,09,23,10,15,20.00
2009,09,23,10,16,20.10
2009,09,23,10,17,20.20
2009,09,23,10,18,20.30
2009,09,23,10,19,20.40
2009,09,23,10,20,20.40
2009,09,23,10,21,20.50
2009,09,23,10,22,20.50
2009,09,23,10,23,20.50
2009,09,23,10,24,20.60
2009,09,23,10,25,20.60
2009,09,23,10,26,20.60
2009,09,23,10,27,20.70
2009,09,23,10,28,20.70
2009,09,23,10,29,20.80
2009,09,23,10,30,20.80
2009,09,23,10,31,20.90
2009,09,23,10,32,20.90
2009,09,23,10,33,20.90
2009,09,23,10,34,21.00
2009,09,23,10,35,21.10
2009,09,23,10,36,21.20
2009,09,23,10,37,21.30
2009,09,23,10,38,21.30
2009,09,23,10,39,21.40
2009,09,23,10,40,21.40
2009,09,23,10,41,21.40
2009,09,23,10,42,21.40
2009,09,23,10,43,21.50
2009,09,23,10,44,21.50
2009,09,23,10,45,21.50
2009,09,23,10,46,21.60
2009,09,23,10,47,21.70
2009,09,23,10,48,21.80
2009,09,23,10,49,21.90
2009,09,23,10,50,22.00
2009,09,23,10,51,22.10
2009,09,23,10,52,22.10
2009,09,23,10,53,22.10
2009,09,23,10,54,22.10
2009,09,23,10,55,22.10
2009,09,23,10,56,22.10
2009,09,23,10,57,22.10
2009,09,23,10,58,22.00
2009,09,23,10,59,21.90
2009,09,23,11,00,21.90
2009,09,23,11,01,21.80
2009,09,23,11,02,21.80
2009,09,23,11,03,21.80
2009,09,23,11,04,21.80
2009,09,23,11,05,21.80
2009,09,23,11,06,21.80
2009,09,23,11,07,21.80
2009,09,23,11,08,21.80
2009,09,23,11,09,21.90
2009,09,23,11,10,22.00
2009,09,23,11,11,22.00
2009,09,23,11,12,22.10
2009,09,23,11,13,22.10
2009,09,23,11,14,22.10
2009,09,23,11,15,22.10
2009,09,23,11,16,22.20
2009,09,23,11,17,22.20
2009,09,23,11,18,22.20
2009,09,23,11,19,22.20
2009,09,23,11,20,22.20
2009,09,23,11,21,22.20
2009,09,23,11,22,22.20
2009,09,23,11,23,22.20
2009,09,23,11,24,22.20
2009,09,23,11,25,22.10
2009,09,23,11,26,22.10
2009,09,23,11,27,22.10
2009,09,23,11,28,22.10
2009,09,23,11,29,22.10
2009,09,23,11,30,22.10
2009,09,23,11,31,22.00
2009,09,23,11,32,22.00
2009,09,23,11,33,22.00
2009,09,23,11,34,22.00
2009,09,23,11,35,21.90
2009,09,23,11,36,22.00
2009,09,23,11,37,22.00
2009,09,23,11,38,22.10
2009,09,23,11,39,22.10
2009,09,23,11,40,22.20
2009,09,23,11,41,22.30
2009,09,23,11,42,22.40
2009,09,23,11,43,22.40
2009,09,23,11,44,22.40
2009,09,23,11,45,22.40
2009,09,23,11,46,22.40
2009,09,23,11,47,22.40
2009,09,23,11,48,22.40
2009,09,23,11,49,22.40
2009,09,23,11,50,22.30
2009,09,23,11,51,22.30
2009,09,23,11,52,22.30
2009,09,23,11,53,22.30
2009,09,23,11,54,22.30
2009,09,23,11,55,22.40
2009,09,23,11,56,22.40
2009,09,23,11,57,22.50
2009,09,23,11,58,22.50
2009,09,23,11,59,22.60
2009,09,23,12,00,22.60
2009,09,23,12,01,22.70
2009,09,23,12,02,22.80
2009,09,23,12,03,22.90
2009,09,23,12,04,23.00
2009,09,23,12,05,23.00
2009,09,23,12,06,23.00
2009,09,23,12,07,22.90
2009,09,23,12,08,23.00
2009,09,23,12,09,23.00
2009,09,23,12,10,23.10
2009,09,23,12,11,23.10
2009,09,23,12,12,23.20
2009,09,23,12,13,23.20
2009,09,23,12,14,23.20
2009,09,23,12,15,23.20
2009,09,23,12,16,23.10
2009,09,23,12,17,23.00
2009,09,23,12,18,23.00
2009,09,23,12,19,22.90
2009,09,23,12,20,22.90
2009,09,23,12,21,22.90
2009,09,23,12,22,22.90
2009,09,23,12,23,22.80
2009,09,23,12,24,22.80
2009,09,23,12,25,22.80
2009,09,23,12,26,22.70
2009,09,23,12,27,22.70
2009,09,23,12,28,22.70
2009,09,23,12,29,22.60
2009,09,23,12,30,22.60
2009,09,23,12,31,22.60
2009,09,23,12,32,22.50
2009,09,23,12,33,22.50
2009,09,23,12,34,22.40
2009,09,23,12,35,22.50
2009,09,23,12,36,22.50
2009,09,23,12,37,22.50
2009,09,23,12,38,22.40
2009,09,23,12,39,22.40
2009,09,23,12,40,22.50
2009,09,23,12,41,22.50
2009,09,23,12,42,22.50
2009,09,23,12,43,22.50
2009,09,23,12,44,22.60
2009,09,23,12,45,22.60
2009,09,23,12,46,22.50
2009,09,23,12,47,22.50
2009,09,23,12,48,22.40
2009,09,23,12,49,22.30
2009,09,23,12,50,22.30
2009,09,23,12,51,22.30
2009,09,23,12,52,22.30
2009,09,23,12,53,22.20
2009,09,23,12,54,22.20
2009,09,23,12,55,22.20
2009,09,23,12,56,22.10
2009,09,23,12,57,22.10
2009,09,23,12,58,22.00
2009,09,23,12,59,22.00
2009,09,23,13,00,21.90
2009,09,23,13,01,21.90
2009,09,23,13,02,21.90
2009,09,23,13,03,21.90
2009,09,23,13,04,21.90
2009,09,23,13,05,22.00
2009,09,23,13,06,22.00
2009,09,23,13,07,22.00
2009,09,23,13,08,21.90
2009,09,23,13,09,21.90
2009,09,23,13,10,21.80
2009,09,23,13,11,21.80
2009,09,23,13,12,21.70
2009,09,23,13,13,21.70
2009,09,23,13,14,21.70
2009,09,23,13,15,21.70
2009,09,23,13,16,21.70
2009,09,23,13,17,21.70
2009,09,23,13,18,21.70
2009,09,23,13,19,21.70
2009,09,23,13,20,21.60
2009,09,23,13,21,21.60
2009,09,23,13,22,21.50
2009,09,23,13,23,21.50
2009,09,23,13,24,21.40
2009,09,23,13,25,21.30
2009,09,23,13,26,21.30
2009,09,23,13,27,21.30
2009,09,23,13,28,21.30
2009,09,23,13,29,21.30
2009,09,23,13,30,21.30
2009,09,23,13,31,21.30
2009,09,23,13,32,21.20
2009,09,23,13,33,21.00
2009,09,23,13,34,20.90
2009,09,23,13,35,20.80
2009,09,23,13,36,20.80
2009,09,23,13,37,20.60
2009,09,23,13,38,20.60
2009,09,23,13,39,20.60
2009,09,23,13,40,20.70
2009,09,23,13,41,20.70
2009,09,23,13,42,20.50
2009,09,23,13,43,20.40
2009,09,23,13,44,20.30
2009,09,23,13,45,20.10
2009,09,23,13,46,20.00
2009,09,23,13,47,20.00
2009,09,23,13,48,20.00
2009,09,23,13,49,20.10
2009,09,23,13,50,20.20
2009,09,23,13,51,20.30
2009,09,23,13,52,20.30
2009,09,23,13,53,20.30
2009,09,23,13,54,20.40
2009,09,23,13,55,20.40
2009,09,23,13,56,20.40
2009,09,23,13,57,20.50
2009,09,23,13,58,20.60
2009,09,23,13,59,20.70
2009,09,23,14,00,20.70
2009,09,23,14,01,20.70
2009,09,23,14,02,20.70
2009,09,23,14,03,20.70
2009,09,23,14,04,20.60
2009,09,23,14,05,20.50
2009,09,23,14,06,20.40
2009,09,23,14,07,20.40
2009,09,23,14,08,20.50
2009,09,23,14,09,20.50
2009,09,23,14,10,20.60
2009,09,23,14,11,20.50
2009,09,23,14,12,20.30
2009,09,23,14,13,20.30
2009,09,23,14,14,20.20
2009,09,23,14,15,20.20
2009,09,23,14,16,20.20
2009,09,23,14,17,20.30
2009,09,23,14,18,20.30
2009,09,23,14,19,20.30
2009,09,23,14,20,20.40
2009,09,23,14,21,20.40
2009,09,23,14,22,20.50
2009,09,23,14,23,20.60
2009,09,23,14,24,20.70
2009,09,23,14,25,20.70
2009,09,23,14,26,20.80
2009,09,23,14,27,20.80
2009,09,23,14,28,20.80
2009,09,23,14,29,20.70
2009,09,23,14,30,20.70
2009,09,23,14,31,20.70
2009,09,23,14,32,20.70
2009,09,23,14,33,20.70
2009,09,23,14,34,20.70
2009,09,23,14,35,20.70
2009,09,23,14,36,20.70
2009,09,23,14,37,20.70
2009,09,23,14,38,20.70
2009,09,23,14,39,20.70
2009,09,23,14,40,20.80
2009,09,23,14,41,20.90
2009,09,23,14,42,20.90
2009,09,23,14,43,20.80
2009,09,23,14,44,20.80
2009,09,23,14,45,20.90
2009,09,23,14,46,20.90
2009,09,23,14,47,21.10
2009,09,23,14,48,21.20
2009,09,23,14,49,21.20
2009,09,23,14,50,21.30
2009,09,23,14,51,21.30
2009,09,23,14,52,21.30
2009,09,23,14,53,21.30
2009,09,23,14,54,21.30
2009,09,23,14,55,21.30
2009,09,23,14,56,21.30
2009,09,23,14,57,21.30
2009,09,23,14,58,21.30
2009,09,23,14,59,21.30
2009,09,23,15,00,21.30
2009,09,23,15,01,21.30
2009,09,23,15,02,21.30
2009,09,23,15,03,21.30
2009,09,23,15,04,21.30
2009,09,23,15,05,21.30
2009,09,23,15,06,21.20
2009,09,23,15,07,21.20
2009,09,23,15,08,21.30
2009,09,23,15,09,21.30
2009,09,23,15,10,21.30
2009,09,23,15,11,21.30
2009,09,23,15,12,21.40
2009,09,23,15,13,21.40
2009,09,23,15,14,21.40
2009,09,23,15,15,21.40
2009,09,23,15,16,21.40
2009,09,23,15,17,21.40
2009,09,23,15,18,21.40
2009,09,23,15,19,21.40
2009,09,23,15,20,21.40
2009,09,23,15,21,21.40
2009,09,23,15,22,21.40
2009,09,23,15,23,21.40
2009,09,23,15,24,21.50
2009,09,23,15,25,21.40
2009,09,23,15,26,21.50
2009,09,23,15,27,21.50
2009,09,23,15,28,21.60
2009,09,23,15,29,21.50
2009,09,23,15,30,21.40
2009,09,23,15,31,21.40
2009,09,23,15,32,21.40
2009,09,23,15,33,21.40
2009,09,23,15,34,21.40
2009,09,23,15,35,21.40
2009,09,23,15,36,21.40
2009,09,23,15,37,21.30
2009,09,23,15,38,21.20
2009,09,23,15,39,21.20
2009,09,23,15,40,21.20
2009,09,23,15,41,21.30
2009,09,23,15,42,21.30
2009,09,23,15,43,21.30
2009,09,23,15,44,21.40
2009,09,23,15,45,21.40
2009,09,23,15,46,21.50
2009,09,23,15,47,21.60
2009,09,23,15,48,21.60
2009,09,23,15,49,21.60
2009,09,23,15,50,21.50
2009,09,23,15,51,21.50
2009,09,23,15,52,21.50
2009,09,23,15,53,21.50
2009,09,23,15,54,21.50
2009,09,23,15,55,21.50
2009,09,23,15,56,21.40
2009,09,23,15,57,21.30
2009,09,23,15,58,21.30
2009,09,23,15,59,21.30
2009,09,23,16,00,21.30
2009,09,23,16,01,21.30
2009,09,23,16,02,21.30
2009,09,23,16,03,21.30
2009,09,23,16,04,21.30
2009,09,23,16,05,21.20
2009,09,23,16,06,21.20
2009,09,23,16,07,21.20
2009,09,23,16,08,21.20
2009,09,23,16,09,21.30
2009,09,23,16,10,21.20
2009,09,23,16,11,21.20
2009,09,23,16,12,21.00
2009,09,23,16,13,20.90
2009,09,23,16,14,20.90
2009,09,23,16,15,20.90
2009,09,23,16,16,20.90
2009,09,23,16,17,20.90
2009,09,23,16,18,20.90
2009,09,23,16,19,20.90
2009,09,23,16,20,20.90
2009,09,23,16,21,20.90
2009,09,23,16,22,21.00
2009,09,23,16,23,21.00
2009,09,23,16,24,21.00
2009,09,23,16,25,21.10
2009,09,23,16,26,21.10
2009,09,23,16,27,21.10
2009,09,23,16,28,21.10
2009,09,23,16,29,21.00
2009,09,23,16,30,21.00
2009,09,23,16,31,21.00
2009,09,23,16,32,21.10
2009,09,23,16,33,21.10
2009,09,23,16,34,21.10
2009,09,23,16,35,21.10
2009,09,23,16,36,21.10
2009,09,23,16,37,21.10
2009,09,23,16,38,21.10
2009,09,23,16,39,21.10
2009,09,23,16,40,21.00
2009,09,23,16,41,21.00
2009,09,23,16,42,20.90
2009,09,23,16,43,20.90
2009,09,23,16,44,20.90
2009,09,23,16,45,20.90
2009,09,23,16,46,20.90
2009,09,23,16,47,20.90
2009,09,23,16,48,20.90
2009,09,23,16,49,21.00
2009,09,23,16,50,21.00
2009,09,23,16,51,21.10
2009,09,23,16,52,21.10
2009,09,23,16,53,21.10
2009,09,23,16,54,21.10
2009,09,23,16,55,21.10
2009,09,23,16,56,21.10
2009,09,23,16,57,21.10
2009,09,23,16,58,21.00
2009,09,23,16,59,21.00
2009,09,23,17,00,21.00
2009,09,23,17,01,21.00
2009,09,23,17,02,21.00
2009,09,23,17,03,20.90
2009,09,23,17,04,20.80
2009,09,23,17,05,20.90
2009,09,23,17,06,20.90
2009,09,23,17,07,20.90
2009,09,23,17,08,20.90
2009,09,23,17,09,20.90
2009,09,23,17,10,20.90
2009,09,23,17,11,20.80
2009,09,23,17,12,20.60
2009,09,23,17,13,20.60
2009,09,23,17,14,20.50
2009,09,23,17,15,20.40
2009,09,23,17,16,20.30
2009,09,23,17,17,20.20
2009,09,23,17,18,20.00
2009,09,23,17,19,20.00